Weather History for Waukesha, WI

Change the Weather History Date:

Tuesday, January 7, 2014

  Actual Average Record
Temperature  
Mean Temperature -9 °F -  
Max Temperature -2 °F 22 °F 59 °F (2008)
Min Temperature -16 °F 8 °F -17 °F (1968)
Degree Days  
Heating Degree Days 74    
Moisture  
Dew Point -17 °F    
Average Humidity 70    
Maximum Humidity 85    
Minimum Humidity 55    
Precipitation  
Precipitation 0.00 in - - ()
Sea Level Pressure  
Sea Level Pressure 30.19 in    
Wind  
Wind Speed 10 mph (WSW)    
Max Wind Speed 16 mph    
Max Gust Speed 24 mph    
Visibility 10 miles    
Events      
Averages and records for this station are not official NWS values.
T = Trace of Precipitation, MM = Missing Value Source: NWS Daily Summary

Daily Weather History Graph

Daily Weather History Graph

Search for Another Location

Airport:

Trip Planner

Search our weather history database for the weather conditions in past years. The results will help you decide how hot, cold, wet, or windy it might be!

Date:

Astronomy

Jan. 07, 2014 Rise Set
Actual Time 7:24 AM CST 4:34 PM CST
Civil Twilight 6:52 AM CST 5:06 PM CST
Nautical Twilight 6:16 AM CST 5:42 PM CST
Astronomical Twilight 5:42 AM CST 6:16 PM CST
Moon 11:01 AM CST (1/7) No Moon Set
Length of Visible Light 10h 14m
Length of Day
9h 10m
Waxing Crescent, 46% of the Moon is Illuminated
Jan 7
Waxing Crescent
Jan 7
First Quarter
Jan 15
Full
Jan 23
Last Quarter
Jan 30
New

Hourly Weather History & Observations

Time (CST) Temp. Windchill Dew Point Humidity Pressure Visibility Wind Dir Wind Speed Gust Speed Precip Events Conditions
12:15 AM -16.6 °F -37.9 °F -23.8 °F 70% 30.13 in 10.0 mi West 11.5 mph - N/A   Clear
12:35 AM -16.6 °F -36.8 °F -23.8 °F 70% 30.12 in 10.0 mi WSW 10.4 mph 18.4 mph N/A   Clear
12:55 AM -16.6 °F -37.9 °F -23.8 °F 70% 30.12 in 10.0 mi WSW 11.5 mph - N/A   Clear
1:15 AM -16.6 °F -39.8 °F -23.8 °F 70% 30.12 in 10.0 mi West 13.8 mph 19.6 mph N/A   Clear
1:35 AM -16.6 °F -41.4 °F -23.8 °F 70% 30.12 in 10.0 mi West 16.1 mph - N/A   Clear
1:55 AM -16.6 °F -39.8 °F -23.8 °F 70% 30.13 in 10.0 mi West 13.8 mph 17.3 mph N/A   Clear
2:15 AM -16.6 °F -37.9 °F -23.8 °F 70% 30.14 in 10.0 mi WSW 11.5 mph - N/A   Clear
2:35 AM -16.6 °F -35.7 °F -23.8 °F 70% 30.14 in 10.0 mi WSW 9.2 mph - N/A   Clear
2:55 AM -16.6 °F -36.8 °F -23.8 °F 70% 30.14 in 10.0 mi WSW 10.4 mph - N/A   Clear
3:15 AM -16.6 °F -35.7 °F -23.8 °F 70% 30.14 in 10.0 mi WSW 9.2 mph - N/A   Clear
3:35 AM -16.6 °F -35.7 °F -23.8 °F 70% 30.14 in 10.0 mi WSW 9.2 mph - N/A   Clear
3:55 AM -16.6 °F -34.4 °F -23.8 °F 70% 30.14 in 10.0 mi WSW 8.1 mph - N/A   Clear
4:15 AM -16.6 °F -35.7 °F -23.8 °F 70% 30.14 in 10.0 mi SW 9.2 mph - N/A   Clear
4:35 AM -16.6 °F -35.7 °F -23.8 °F 70% 30.13 in 10.0 mi WSW 9.2 mph - N/A   Clear
5:45 AM -16.6 °F -39.8 °F -23.8 °F 70% 30.15 in 10.0 mi SW 13.8 mph - N/A   Clear
6:45 AM -16.6 °F -39.8 °F -23.8 °F 70% 30.13 in 10.0 mi SW 13.8 mph - N/A   Clear
7:45 AM -16.6 °F -39.8 °F -23.8 °F 70% 30.15 in 10.0 mi SW 13.8 mph - N/A   Clear
8:45 AM -14.8 °F - -20.2 °F 77% 30.19 in 1.4 mi North - - N/A   Scattered Clouds
9:45 AM -11.2 °F -31.1 °F -20.2 °F 64% 30.21 in 10.0 mi WSW 11.5 mph 24.2 mph N/A   Scattered Clouds
10:45 AM -9.4 °F -28.9 °F -18.4 °F 65% 30.20 in 10.0 mi West 11.5 mph 23.0 mph N/A   Scattered Clouds
11:45 AM -5.8 °F -24.4 °F -16.6 °F 60% 30.17 in 10.0 mi WSW 11.5 mph - N/A   Scattered Clouds
12:45 PM -4.0 °F -21.2 °F -14.8 °F 60% 30.17 in 10.0 mi WSW 10.4 mph - N/A   Scattered Clouds
1:45 PM -2.2 °F -21.5 °F -14.8 °F 55% 30.16 in 10.0 mi WSW 13.8 mph - N/A   Clear
2:45 PM -2.2 °F -22.2 °F -14.8 °F 55% 30.16 in 10.0 mi WSW 15.0 mph - N/A   Clear
3:45 PM -2.2 °F -18.0 °F -14.8 °F 55% 30.16 in 10.0 mi SW 9.2 mph - N/A   Clear
4:45 PM -2.2 °F -15.6 °F -14.8 °F 55% 30.17 in 10.0 mi WSW 6.9 mph - N/A   Clear
5:45 PM -5.8 °F -18.4 °F -14.8 °F 65% 30.19 in 10.0 mi SSW 5.8 mph - N/A   Clear
6:45 PM -5.8 °F -16.7 °F -14.8 °F 65% 30.21 in 10.0 mi SW 4.6 mph - N/A   Clear
7:45 PM -5.8 °F -16.7 °F -13.0 °F 71% 30.23 in 10.0 mi SW 4.6 mph - N/A   Clear
8:15 PM -4.0 °F -12.4 °F -13.0 °F 65% 30.23 in 10.0 mi SW 3.5 mph - N/A   Clear
8:35 PM -4.0 °F -12.4 °F -11.2 °F 71% 30.24 in 10.0 mi WSW 3.5 mph - N/A   Clear
8:45 PM -4.0 °F -12.4 °F -11.2 °F 71% 30.25 in 10.0 mi WSW 3.5 mph - N/A   Clear
8:55 PM -4.0 °F -12.4 °F -11.2 °F 71% 30.25 in 10.0 mi West 3.5 mph - N/A   Clear
9:15 PM -4.0 °F - -9.4 °F 78% 30.25 in 10.0 mi Calm Calm - N/A   Clear
9:35 PM -4.0 °F -16.3 °F -9.4 °F 78% 30.26 in 10.0 mi WSW 5.8 mph - N/A   Clear
9:55 PM -4.0 °F -17.8 °F -9.4 °F 78% 30.26 in 10.0 mi SW 6.9 mph - N/A   Clear
10:15 PM -4.0 °F -16.3 °F -9.4 °F 78% 30.25 in 10.0 mi WSW 5.8 mph - N/A   Clear
10:35 PM -4.0 °F -16.3 °F -9.4 °F 78% 30.25 in 10.0 mi WSW 5.8 mph - N/A   Clear
10:55 PM -4.0 °F -16.3 °F -9.4 °F 78% 30.26 in 10.0 mi West 5.8 mph - N/A   Clear
11:15 PM -4.0 °F -16.3 °F -7.6 °F 85% 30.26 in 10.0 mi WSW 5.8 mph - N/A   Clear
11:35 PM -4.0 °F -17.8 °F -7.6 °F 85% 30.26 in 10.0 mi WSW 6.9 mph - N/A   Clear
11:55 PM -4.0 °F -16.3 °F -9.4 °F 78% 30.25 in 10.0 mi WSW 5.8 mph - N/A   Clear